Flag for U.S.A. Weather past 2 weeks in Gainesville, Florida, U.S.A.

Now
42 °F

Clear.


Feels Like: 39 °F
Forecast: 36 / 63 °F
Wind: 5 mph from Northwest

Location: Gainesville Regional Airport

Current Time: Jan 31, 2015 at 12:35:28 AM

Latest Report: Jan 30, 2015 at 11:53 PM


Visibility: 10 mi

Pressure: 30.28 "Hg

Humidity: 71%

Dew point: 33 °F

Location of GainesvilleLocation

Historic Weather in Gainesville — Graph

°F

Gainesville temperature yesterday

Maximum temperature yesterday: 67 °F (at 12:53 PM)
Minimum temperature yesterday: 42 °F (at 10:53 PM)
Average temperature yesterday: 55 °F

Past Weeks' High & Low Weather Summary

 TemperatureHumidityPressure
High74 °F (Jan 21, 3:53 PM)100% (Jan 17, 5:53 AM)30.37 "Hg (Jan 17, 5:53 AM)
Low30 °F (Jan 29, 2:53 AM)23% (Jan 19, 2:53 PM)29.74 "Hg (Jan 24, 3:53 AM)
Average53 °F76%30.09 "Hg
* Reported Jan 15 10:53 PM — Jan 30 10:53 PM, Gainesville, Weather by CustomWeather, © 2014

Note: Actual official high and low records may vary slightly from our data, if they occured in-between our weather recording intervals... More about our weather records

Advertising

Gainesville weather history for previous 24 hours

 ConditionsComfort  
Time TempWeatherWind HumidityBarometerVisibility
10:53 PM
Jan 30
42 °FClear.3 mph76%30.28 "Hg10 mi
9:53 PM48 °FClear.3 mph54%30.27 "Hg10 mi
8:53 PM51 °FClear.5 mph48%30.25 "Hg10 mi
7:53 PM52 °FClear.5 mph49%30.23 "Hg10 mi
6:53 PM55 °FClear.5 mph45%30.21 "Hg10 mi
5:53 PM59 °FPassing clouds.5 mph42%30.19 "Hg6 mi
4:53 PM63 °FOvercast.8 mph34%30.17 "Hg7 mi
3:53 PM67 °FPassing clouds.8 mph29%30.16 "Hg9 mi
2:53 PM67 °FPartly sunny.10 mph36%30.15 "Hg10 mi
1:53 PM67 °FSunny.15 mph41%30.16 "Hg10 mi
12:53 PM67 °FSunny.14 mph45%30.17 "Hg10 mi
11:53 AM66 °FSunny.12 mph59%30.18 "Hg10 mi
10:53 AM64 °FSunny.9 mph68%30.19 "Hg10 mi
9:53 AM59 °FPartly sunny.13 mph87%30.19 "Hg10 mi
8:53 AM54 °FOvercast.8 mph97%30.19 "Hg10 mi
7:53 AM53 °FPartly sunny.8 mph93%30.17 "Hg10 mi
6:53 AM51 °FClear.8 mph96%30.16 "Hg10 mi
5:53 AM50 °FClear.8 mph96%30.16 "Hg10 mi
4:53 AM48 °FClear.7 mph96%30.16 "Hg10 mi
3:53 AM46 °FClear.5 mph96%30.17 "Hg10 mi
2:53 AM48 °FClear.3 mph93%30.19 "Hg10 mi
1:53 AM47 °FClear.6 mph90%30.20 "Hg10 mi
12:53 AM47 °FClear.5 mph80%30.19 "Hg10 mi
Weather by CustomWeather, © 2014

See weather overviewHow to use our weather pages